Time,TemperatureF,DewpointF,PressureIn,WindDirection,WindDirectionDegrees,WindSpeedMPH,WindSpeedGustMPH,Humidity,HourlyPrecipIn,Conditions,Clouds,dailyrainin,SoftwareType,DateUTC
2015-07-05 00:01:00,63.5,54.3,30.13,NW,318,0.9,2.0,72,-99.99,,,0.00,meteobridge,2015-07-05 07:01:00,
2015-07-05 00:06:00,63.3,53.8,30.13,NW,316,0.0,0.0,71,-99.99,,,0.00,meteobridge,2015-07-05 07:06:00,
2015-07-05 00:11:00,63.3,54.1,30.13,NW,316,0.0,0.0,72,-99.99,,,0.00,meteobridge,2015-07-05 07:11:00,
2015-07-05 00:16:00,63.1,53.6,30.13,NW,316,0.0,0.0,71,-99.99,,,0.00,meteobridge,2015-07-05 07:16:00,
2015-07-05 00:21:00,63.0,53.4,30.13,NW,316,0.0,0.0,71,-99.99,,,0.00,meteobridge,2015-07-05 07:21:00,
2015-07-05 00:26:00,62.8,53.6,30.12,NW,318,0.0,0.0,72,-99.99,,,0.00,meteobridge,2015-07-05 07:26:00,
2015-07-05 00:31:00,63.0,54.1,30.12,NW,316,0.0,0.0,73,-99.99,,,0.00,meteobridge,2015-07-05 07:31:00,
2015-07-05 00:36:00,62.6,54.1,30.12,NW,316,0.0,0.0,74,-99.99,,,0.00,meteobridge,2015-07-05 07:36:00,
2015-07-05 00:41:00,62.6,53.4,30.13,NW,316,0.0,0.0,72,-99.99,,,0.00,meteobridge,2015-07-05 07:41:00,
2015-07-05 00:46:00,62.4,52.9,30.13,NW,318,0.0,0.0,71,-99.99,,,0.00,meteobridge,2015-07-05 07:46:00,
2015-07-05 00:51:00,62.2,53.1,30.13,NW,318,0.0,1.0,72,-99.99,,,0.00,meteobridge,2015-07-05 07:51:00,
2015-07-05 00:57:00,62.2,53.4,30.14,NW,316,0.0,1.0,73,-99.99,,,0.00,meteobridge,2015-07-05 07:57:00,
2015-07-05 01:02:00,62.1,53.2,30.14,NW,316,0.0,0.0,73,-99.99,,,0.00,meteobridge,2015-07-05 08:02:00,
2015-07-05 01:08:00,61.9,53.4,30.14,NW,316,0.0,0.0,74,-99.99,,,0.00,meteobridge,2015-07-05 08:08:00,
2015-07-05 01:13:00,61.9,53.4,30.14,NW,320,0.0,0.0,74,-99.99,,,0.00,meteobridge,2015-07-05 08:13:00,
2015-07-05 01:18:00,61.5,53.2,30.14,NW,325,0.0,0.0,74,-99.99,,,0.00,meteobridge,2015-07-05 08:18:00,
2015-07-05 01:24:00,61.3,53.4,30.14,NW,325,0.0,0.0,75,-99.99,,,0.00,meteobridge,2015-07-05 08:24:00,
2015-07-05 01:30:00,61.3,53.4,30.14,NW,325,0.0,0.0,75,-99.99,,,0.00,meteobridge,2015-07-05 08:30:00,
2015-07-05 01:35:00,61.2,53.6,30.14,NW,325,0.0,0.0,76,-99.99,,,0.00,meteobridge,2015-07-05 08:35:00,
2015-07-05 01:40:00,61.0,53.4,30.15,NW,323,0.0,0.0,76,-99.99,,,0.00,meteobridge,2015-07-05 08:40:00,
2015-07-05 01:45:00,60.8,53.2,30.15,NW,325,0.0,0.0,76,-99.99,,,0.00,meteobridge,2015-07-05 08:45:00,
2015-07-05 01:51:00,60.6,53.1,30.15,NNW,329,0.0,0.0,76,-99.99,,,0.00,meteobridge,2015-07-05 08:51:00,